SCP
0 0 0 0 0 0 0 0 0 0 0 0 0 0 0 0 0 0 0 0 0 0 1 1 1 1 1 1 0 1 1 1 1 1 1 1 1 1 1 1 1 0 0
0 0 0 0 0 0 0 0 0 0 0 0 0 0 0 0 0 0 0 0 0 0 1 1 1 1 1 1 1 1 1 1 1 1 1 1 1 1 1 1 1 1 0
0 0 0 0 0 0 0 0 0 0 0 0 0 0 0 0 0 0 0 0 0 0 1 1 1 1 1 1 1 1 1 1 1 1 1 1 1 1 1 1 1 0 0
0 0 0 0 0 0 0 0 0 0 0 0 0 0 0 0 0 0 0 0 0 0 0 1 1 1 1 1 1 1 1 1 1 1 1 1 1 1 1 1 1 0 0
0 0 0 0 0 0 0 0 1 0 0 0 0 0 0 0 0 0 0 0 0 0 0 0 1 1 1 1 1 1 1 1 1 1 1 1 1 1 1 1 0 0 0
0 0 0 0 0 0 0 0 1 0 0 0 0 0 0 0 0 0 0 0 0 0 0 0 0 1 1 1 1 1 1 1 1 1 1 1 1 1 1 0 0 0 0
0 0 0 0 0 0 0 0 0 0 0 0 0 0 0 0 0 0 0 0 0 0 0 0 0 0 1 1 1 1 1 1 1 1 1 1 1 1 0 0 0 0 0
0 0 0 0 0 0 0 0 0 0 0 0 0 0 0 0 0 0 0 0 0 0 0 0 0 0 1 1 1 1 1 1 1 1 1 1 1 1 1 1 0 0 0
0 0 0 0 0 0 0 0 0 0 0 0 0 0 0 0 0 0 0 0 0 0 0 0 0 0 1 1 1 1 1 1 1 1 1 1 1 1 1 1 1 1 1
0 0 0 0 0 0 0 0 0 0 0 0 0 0 0 0 0 0 0 0 0 0 0 0 0 0 0 1 0 0 1 1 1 1 1 1 1 1 1 1 1 1 1
0 0 0 0 0 0 0 0 0 0 0 0 0 0 0 0 0 0 0 0 0 0 1 0 0 0 0 0 0 0 0 0 1 1 1 1 1 1 1 1 1 1 0
0 0 0 0 0 0 0 0 0 0 0 0 0 0 0 0 0 0 0 0 0 1 1 1 0 0 0 0 0 0 0 0 1 1 1 1 1 1 1 1 1 1 1
0 0 0 0 0 0 0 0 0 0 0 0 0 0 0 0 0 0 0 0 0 1 1 1 0 0 0 0 0 0 0 0 0 1 1 1 1 1 1 1 1 1 1
0 0 0 0 0 0 0 0 0 0 0 0 0 0 0 0 0 0 0 0 0 1 1 1 0 0 0 0 0 0 0 0 0 0 1 1 0 0 0 0 0 0 0
0 0 0 0 0 0 0 0 0 0 0 0 0 0 0 0 0 0 0 0 0 0 1 0 0 0 0 0 0 0 0 0 0 0 0 0 0 0 0 0 0 0 0
0 0 0 0 0 0 0 0 0 0 0 0 0 0 0 0 0 0 0 0 0 0 0 0 0 0 0 0 0 0 0 0 0 0 0 0 0 0 0 0 0 0 0
0 0 0 0 0 0 0 0 0 0 0 0 0 0 0 0 0 0 0 0 0 0 0 0 0 0 0 0 0 0 0 0 0 0 0 0 0 0 0 0 0 0 0
0 0 0 0 0 0 0 0 0 0 0 0 0 0 0 0 0 0 0 0 0 0 0 0 0 0 0 0 0 0 0 0 0 0 0 0 0 0 0 0 0 0 0
0 0 0 0 0 0 0 0 0 0 0 0 0 0 0 0 0 0 0 0 0 0 0 0 0 0 0 0 0 0 0 0 0 0 0 0 0 0 0 0 0 0 0
0 0 0 0 0 0 0 0 0 0 0 0 0 0 0 0 0 0 0 0 0 0 0 0 0 0 0 0 0 0 0 0 0 0 0 0 0 0 0 0 0 0 0
0 0 0 0 0 0 0 0 0 0 0 0 0 0 0 0 0 0 0 0 0 0 0 0 0 0 0 0 0 0 0 0 0 0 0 0 0 0 0 0 0 0 0
0 0 0 0 0 0 0 0 0 0 0 0 0 0 0 0 0 0 0 0 0 0 0 0 0 0 0 0 0 0 0 0 0 0 0 0 0 0 0 0 0 0 0
0 0 0 0 0 0 0 0 0 0 0 0 0 0 0 0 0 0 0 0 0 0 0 0 0 0 0 0 0 0 0 0 0 0 0 0 0 0 0 0 0 0 0
0 0 0 0 0 0 0 0 0 0 0 0 0 0 0 0 0 0 0 0 0 0 0 0 0 0 0 0 0 0 0 0 0 0 0 0 0 0 0 0 0 0 0
0 0 0 0 0 0 0 0 0 0 0 0 0 0 0 0 0 0 0 0 0 0 0 0 0 0 0 0 0 0 0 0 0 0 0 0 0 0 0 0 0 0 0
0 0 0 0 0 0 0 0 0 0 0 0 0 0 0 0 0 0 0 0 0 0 0 0 0 0 0 0 0 0 0 0 0 0 0 0 0 0 0 0 0 0 0
Wind_Speed
3 3 2 3 3 2 3 4 4 4 4 4 4 4 4 4 4 3 2 6 6 7 8 9 9 9 8 8 8 8 8 8 8 9 9 9 9 9 9 9 9 9 9
4 3 3 3 2 2 2 3 4 4 3 3 4 4 4 3 3 4 3 4 6 6 6 7 8 8 8 7 7 7 7 7 7 8 8 8 8 8 8 8 8 8 8
4 3 3 2 2 2 3 3 4 3 3 3 4 3 3 3 3 4 3 3 3 5 6 6 6 6 7 6 6 6 6 6 6 7 7 7 7 7 7 7 7 7 7
4 4 3 2 2 2 2 3 3 4 3 3 3 2 2 3 3 3 3 3 3 3 4 6 5 5 5 5 5 5 5 5 5 5 5 5 6 6 6 6 6 6 6
4 3 3 3 3 2 2 3 2 3 4 3 3 2 2 2 2 3 3 3 3 3 2 4 6 6 5 4 4 4 3 4 4 5 4 4 4 4 4 4 4 4 5
3 3 3 3 3 3 2 2 3 3 3 3 3 3 2 2 2 2 2 2 2 3 2 3 3 3 5 4 3 3 3 3 4 4 4 4 4 4 3 3 3 4 4
3 4 3 3 3 3 3 4 4 4 3 2 3 2 2 2 2 1 1 1 2 2 2 2 2 2 2 4 4 2 2 1 2 3 3 3 3 2 2 2 2 3 3
3 3 4 3 3 3 4 4 4 3 2 2 3 3 1 1 1 1 1 1 1 1 1 2 2 2 1 1 3 3 2 1 2 2 2 2 2 2 2 1 2 2 2
2 3 4 4 3 4 4 4 4 5 4 2 1 3 4 3 1 1 0 0 0 0 0 0 1 1 1 1 1 3 3 2 0 1 2 2 2 1 1 1 1 1 1
2 2 3 4 4 3 4 4 3 3 5 4 2 1 1 3 3 1 1 1 1 1 1 1 0 1 0 0 1 2 2 2 1 1 2 2 2 2 1 1 0 0 0
2 2 3 3 3 3 4 5 4 3 3 4 3 2 2 1 2 2 2 2 1 2 2 2 1 1 1 1 1 2 1 1 2 2 2 2 2 1 1 0 0 1 1
2 2 2 3 3 3 4 4 5 5 4 4 3 3 3 3 3 3 2 2 3 2 2 2 2 2 2 1 1 1 2 2 3 3 3 3 2 2 2 2 1 1 1
2 3 3 3 3 3 3 3 4 5 5 5 5 3 3 2 2 2 2 2 2 1 1 2 2 2 2 1 2 2 2 3 3 4 4 3 3 3 3 3 2 2 2
3 3 4 3 3 4 4 4 4 4 4 4 5 5 3 3 3 3 3 3 2 2 2 3 2 3 2 2 2 2 2 3 3 4 4 4 4 3 3 3 3 3 3
3 3 3 4 4 4 4 4 3 4 4 4 4 5 4 4 4 3 3 4 4 4 5 4 3 3 2 2 3 2 2 4 4 4 4 4 4 4 4 3 4 4 4
3 4 4 4 4 4 4 4 4 4 4 4 4 5 5 4 4 4 4 3 3 4 4 3 3 2 3 2 4 3 3 5 5 5 5 4 4 4 4 5 5 5 5
4 5 5 5 5 5 5 5 4 4 5 5 4 5 6 4 4 4 4 4 4 3 4 3 2 2 3 3 3 3 3 3 3 5 5 5 5 5 5 5 5 6 6
5 5 5 5 6 6 5 6 6 5 6 6 6 6 6 5 5 4 4 5 5 4 4 4 3 3 4 4 3 3 3 3 3 6 6 6 5 5 6 5 5 6 6
4 4 5 6 6 6 6 6 6 6 7 7 6 6 6 6 6 5 5 5 4 4 3 4 3 2 2 2 2 3 3 2 3 4 5 6 6 6 6 6 6 6 6
4 4 5 5 6 6 6 6 6 6 6 7 6 6 7 8 7 7 6 6 5 4 4 4 4 3 3 3 3 3 2 2 3 2 4 4 5 6 6 6 6 6 6
4 4 4 5 4 5 5 6 6 6 6 6 6 7 7 9 9 8 6 6 6 5 4 4 4 3 3 4 4 3 4 2 2 2 2 2 3 2 3 5 5 6 7
4 4 4 5 5 5 8 9 7 6 6 6 6 6 7 8 10 11 10 10 9 8 7 5 5 6 6 5 4 4 3 2 3 2 2 3 2 3 3 3 6 7 7
3 4 4 4 5 6 9 10 9 6 6 6 6 5 5 6 8 7 9 10 11 12 10 7 7 7 6 6 5 5 5 4 4 3 2 3 2 4 3 4 7 8 8
4 4 4 4 5 6 9 9 9 5 5 5 6 6 6 5 7 8 7 7 7 7 8 7 7 7 6 5 6 6 5 3 2 2 3 3 2 3 3 3 7 8 8
4 4 4 4 5 5 8 8 7 4 4 5 5 5 5 5 8 9 7 7 6 6 7 8 8 7 7 8 6 4 4 3 3 3 3 3 2 2 2 2 4 6 7
3 3 3 4 4 5 7 8 7 3 4 4 4 5 7 7 8 9 7 7 8 6 4 4 4 5 5 6 7 6 5 5 3 3 3 3 2 1 1 1 1 2 3
Wind_Direction
114 100 88 77 73 73 93 98 97 93 86 80 77 76 68 58 53 42 44 67 84 98 103 103 100 98 101 102 98 94 91 91 90 86 83 81 80 79 78 76 72 68 67
125 118 105 90 80 73 92 103 106 103 93 88 79 73 68 60 56 49 41 49 67 82 99 107 102 95 96 105 103 101 98 94 94 90 85 82 78 76 77 75 73 68 66
127 125 121 113 110 95 99 107 102 98 92 84 77 69 68 61 61 55 46 44 44 53 72 95 100 97 92 93 96 103 103 101 98 95 91 86 83 78 74 72 71 68 66
130 129 128 127 125 115 115 124 119 112 100 93 84 67 60 59 60 59 53 49 47 41 48 65 77 87 99 104 102 99 101 102 99 101 100 93 86 81 75 71 68 67 67
136 136 135 136 131 121 114 131 122 125 123 110 95 71 52 52 49 59 57 49 54 54 47 45 51 58 69 94 104 109 112 116 110 106 104 105 99 89 80 76 70 67 65
145 140 137 141 138 132 121 131 129 110 123 121 102 74 49 38 44 49 52 41 49 54 54 53 43 31 44 63 79 91 104 119 126 120 113 104 101 96 84 81 77 68 59
145 142 145 152 150 149 151 144 136 125 113 119 104 83 36 34 46 32 34 45 38 41 53 57 54 41 18 30 37 59 85 122 136 133 133 129 115 104 96 85 83 77 61
155 150 150 162 162 151 146 148 142 142 141 142 128 127 106 352 346 359 18 54 27 44 58 49 52 47 30 14 9 26 27 65 142 148 156 154 155 138 125 112 85 79 70
154 157 160 157 169 166 168 168 167 157 161 171 145 147 154 195 234 289 233 201 207 143 217 105 71 49 23 9 339 3 15 6 25 194 189 186 182 172 161 161 158 90 57
165 156 162 164 171 175 173 175 170 171 162 170 169 133 144 147 157 211 269 245 250 226 233 253 233 232 240 299 321 338 354 355 334 302 251 232 208 205 195 197 211 187 9
175 166 164 163 174 179 184 182 170 170 177 174 169 160 141 124 148 161 215 239 260 242 234 231 223 229 227 211 262 297 333 333 318 293 281 265 236 223 232 241 314 329 344
187 175 171 179 185 184 187 195 187 180 189 182 176 171 166 168 180 175 190 216 232 245 243 229 220 226 223 214 248 281 295 308 303 289 277 275 269 253 252 245 260 280 303
203 206 193 194 195 196 191 193 192 190 193 194 191 194 190 185 169 170 173 194 224 255 257 239 222 218 218 207 237 267 266 285 285 277 271 272 279 275 255 249 255 268 278
207 203 204 206 203 199 196 192 197 197 193 203 206 203 199 200 185 182 175 167 197 243 245 243 227 209 209 212 238 254 252 268 275 275 274 277 277 270 254 250 259 263 268
204 200 203 209 211 203 200 195 202 202 198 206 211 212 211 205 200 198 192 186 180 206 229 227 217 208 210 216 232 227 242 258 265 269 273 279 274 261 249 245 254 263 269
205 200 210 217 217 211 205 201 207 207 201 209 208 211 217 211 204 201 200 204 204 199 220 216 213 215 216 234 235 224 238 255 258 260 260 262 262 263 259 249 244 251 263
206 205 208 214 217 213 205 206 213 208 210 214 212 211 219 212 206 206 201 201 211 207 225 237 214 207 203 216 231 226 230 231 243 254 256 255 256 260 264 259 247 247 252
212 213 210 214 220 217 208 207 213 213 214 217 219 216 218 212 210 208 207 209 212 215 213 231 219 204 209 212 214 222 236 239 236 249 252 252 255 259 259 258 252 251 254
215 217 214 215 219 219 216 214 214 217 219 220 218 218 217 210 214 210 210 214 215 222 215 219 223 202 204 201 206 229 229 234 241 241 246 249 253 259 258 254 256 256 257
215 218 222 222 222 221 220 216 215 218 222 223 221 221 218 212 214 212 213 213 208 212 209 216 218 205 204 195 191 208 228 224 238 238 243 250 256 263 262 260 263 262 257
224 221 223 227 225 223 223 218 213 215 220 224 224 225 225 221 221 219 217 209 201 206 206 215 215 208 205 194 203 198 217 229 242 219 224 241 248 248 251 262 265 262 260
227 223 223 224 226 231 236 231 220 215 218 220 225 227 231 227 225 228 231 225 212 207 207 213 217 217 214 205 197 198 200 206 242 204 197 245 223 241 242 242 259 263 264
227 227 226 224 230 236 239 237 229 220 215 217 220 225 232 229 225 221 229 233 227 226 223 217 220 217 211 202 193 201 205 209 225 197 188 244 221 241 246 252 261 262 262
229 230 230 227 227 238 240 237 233 220 221 221 222 223 227 235 226 218 216 221 221 224 228 226 226 220 214 203 197 202 203 209 231 212 186 226 223 241 257 257 260 259 259
237 234 234 226 226 240 241 239 235 213 223 229 230 227 228 234 239 226 214 217 225 231 239 242 241 233 225 218 201 178 182 190 224 218 194 207 218 245 264 259 267 268 266
241 241 245 228 226 236 240 238 236 215 223 229 231 229 234 239 244 227 213 208 218 224 213 218 228 229 219 213 213 198 191 197 200 218 196 191 194 180 268 265 273 285 283